Total_Precipitation_Accumulation
0.88 0.91 0.91 0.89 0.87 0.88 0.89 0.84 0.84 0.83 0.82 0.81 0.82 0.85 0.87 0.91 0.95 0.99 1.03 1.11 1.15 1.19 1.25 1.36 1.46 1.59 1.59 1.49 1.54 1.65 1.78 1.88 1.69 1.66 1.63 1.45 1.35 1.22 1.11 1.05 0.94 0.88 0.75
0.81 0.84 0.89 0.88 0.83 0.80 0.76 0.74 0.76 0.77 0.78 0.78 0.77 0.79 0.81 0.86 0.92 1.00 1.05 1.10 1.12 1.12 1.15 1.26 1.31 1.38 1.48 1.44 1.39 1.40 1.57 1.73 1.72 1.73 1.85 1.78 1.56 1.40 1.29 1.17 0.97 0.83 0.80
0.81 0.85 0.84 0.85 0.83 0.76 0.66 0.65 0.64 0.66 0.71 0.70 0.67 0.66 0.68 0.78 0.88 0.93 0.97 1.01 1.08 1.15 1.11 1.11 1.12 1.19 1.38 1.51 1.50 1.47 1.51 1.63 1.74 1.75 1.86 1.92 1.71 1.50 1.48 1.33 1.17 1.16 0.88
0.74 0.76 0.72 0.70 0.70 0.71 0.69 0.63 0.59 0.58 0.62 0.65 0.64 0.67 0.68 0.73 0.79 0.82 0.82 0.81 0.83 0.89 0.92 0.91 0.89 0.93 1.10 1.37 1.45 1.57 1.61 1.61 1.71 1.76 1.85 1.95 1.99 1.78 1.71 1.57 1.44 1.34 1.15
0.69 0.70 0.67 0.67 0.66 0.64 0.60 0.56 0.54 0.52 0.48 0.55 0.60 0.64 0.68 0.68 0.63 0.64 0.67 0.61 0.60 0.58 0.60 0.64 0.66 0.69 0.71 0.85 1.04 1.32 1.52 1.60 1.64 1.75 1.83 1.92 1.96 1.99 1.75 1.62 1.55 1.52 1.43
0.55 0.56 0.63 0.66 0.63 0.62 0.56 0.51 0.49 0.50 0.53 0.57 0.59 0.58 0.57 0.52 0.55 0.55 0.53 0.49 0.47 0.46 0.45 0.46 0.45 0.45 0.47 0.53 0.61 0.82 1.07 1.32 1.57 1.74 1.81 1.86 1.91 1.97 1.92 1.79 1.69 1.58 1.58
0.48 0.51 0.52 0.56 0.60 0.58 0.51 0.49 0.47 0.48 0.53 0.56 0.56 0.59 0.57 0.57 0.52 0.49 0.50 0.46 0.44 0.44 0.45 0.45 0.35 0.30 0.36 0.42 0.47 0.52 0.65 0.78 0.96 1.34 1.62 1.66 1.74 1.84 2.00 1.96 1.89 1.85 1.79
0.52 0.54 0.53 0.53 0.58 0.60 0.55 0.52 0.53 0.55 0.56 0.58 0.59 0.61 0.63 0.61 0.55 0.49 0.47 0.42 0.46 0.50 0.47 0.47 0.43 0.38 0.38 0.43 0.50 0.51 0.47 0.52 0.61 0.74 0.91 1.09 1.31 1.64 1.88 1.99 2.09 2.14 2.17
0.55 0.57 0.56 0.55 0.58 0.60 0.59 0.62 0.65 0.69 0.63 0.58 0.63 0.69 0.71 0.70 0.61 0.53 0.50 0.45 0.48 0.52 0.49 0.48 0.49 0.44 0.41 0.34 0.41 0.49 0.50 0.51 0.51 0.58 0.64 0.80 0.96 1.16 1.43 1.63 1.77 1.94 2.21
0.57 0.57 0.57 0.62 0.67 0.69 0.73 0.82 0.86 0.88 0.82 0.76 0.73 0.76 0.76 0.79 0.70 0.55 0.52 0.52 0.55 0.59 0.61 0.59 0.54 0.48 0.42 0.37 0.39 0.49 0.53 0.53 0.57 0.60 0.58 0.59 0.65 0.75 0.94 1.14 1.29 1.50 1.76
0.69 0.71 0.71 0.75 0.83 0.87 0.98 1.07 1.10 1.06 1.06 1.04 0.98 0.95 0.95 0.89 0.81 0.61 0.54 0.56 0.64 0.74 0.74 0.72 0.70 0.59 0.44 0.39 0.40 0.45 0.48 0.53 0.61 0.69 0.73 0.73 0.71 0.69 0.75 0.88 1.07 1.16 1.27
0.88 0.89 0.90 0.98 0.90 0.88 1.08 1.16 1.23 1.28 1.23 1.17 1.17 1.11 1.07 1.02 0.86 0.68 0.58 0.61 0.67 0.83 0.91 0.88 0.81 0.67 0.52 0.44 0.41 0.39 0.39 0.40 0.48 0.60 0.68 0.74 0.75 0.69 0.70 0.80 1.01 1.17 1.17
1.06 1.08 1.10 1.14 1.17 1.18 1.29 1.31 1.31 1.32 1.28 1.22 1.23 1.21 1.16 1.12 1.02 0.79 0.68 0.65 0.66 0.76 0.85 0.84 0.77 0.63 0.55 0.49 0.47 0.44 0.39 0.41 0.49 0.56 0.61 0.70 0.74 0.73 0.76 0.87 1.03 1.20 1.22
1.19 1.19 1.27 1.37 1.37 1.40 1.49 1.48 1.42 1.39 1.38 1.32 1.30 1.27 1.24 1.24 1.22 1.10 0.90 0.79 0.74 0.71 0.75 0.80 0.78 0.70 0.61 0.58 0.58 0.53 0.49 0.53 0.61 0.62 0.66 0.74 0.84 0.87 0.89 0.89 0.99 1.09 1.19
1.34 1.37 1.44 1.53 1.58 1.61 1.54 1.51 1.46 1.47 1.41 1.37 1.34 1.30 1.29 1.25 1.16 1.06 1.01 0.97 0.91 0.88 0.89 0.95 0.97 0.90 0.82 0.79 0.79 0.78 0.77 0.74 0.70 0.72 0.77 0.83 0.90 0.93 0.92 0.96 1.01 1.06 1.04
1.46 1.48 1.52 1.54 1.60 1.60 1.58 1.48 1.36 1.28 1.19 1.13 1.13 1.12 1.09 1.02 0.97 0.90 0.86 0.84 0.87 0.93 0.93 0.97 1.08 1.13 1.08 1.01 0.98 0.98 0.97 0.92 0.87 0.88 0.91 0.90 0.90 0.91 0.91 0.98 1.06 1.06 1.03
1.46 1.49 1.48 1.47 1.51 1.54 1.54 1.53 1.43 1.33 1.18 1.07 1.01 0.94 0.91 0.90 0.89 0.89 0.90 0.91 0.90 0.92 0.94 1.01 1.13 1.20 1.25 1.23 1.16 1.08 1.04 0.98 0.92 0.92 0.92 0.93 0.93 0.96 0.98 1.01 1.05 1.08 1.06
1.42 1.44 1.39 1.34 1.36 1.41 1.43 1.48 1.51 1.47 1.40 1.26 1.14 1.04 0.91 0.83 0.83 0.88 0.91 0.93 0.90 0.89 0.94 1.07 1.19 1.27 1.34 1.33 1.23 1.15 1.08 1.00 0.94 0.95 0.97 1.00 0.99 1.01 1.02 1.01 1.02 1.04 1.06
1.38 1.43 1.44 1.44 1.45 1.47 1.50 1.57 1.60 1.55 1.49 1.40 1.25 1.09 0.95 0.85 0.83 0.87 0.87 0.85 0.91 0.96 1.02 1.15 1.23 1.25 1.22 1.19 1.15 1.13 1.06 1.00 0.98 0.98 0.98 0.99 0.98 1.00 1.03 1.06 1.07 1.10 1.07
1.34 1.40 1.47 1.43 1.41 1.45 1.54 1.62 1.64 1.64 1.65 1.63 1.51 1.26 1.06 0.94 0.92 0.94 0.89 0.89 0.91 0.93 0.96 1.06 1.16 1.19 1.17 1.13 1.10 1.04 1.01 0.98 0.97 0.97 0.98 0.96 0.99 1.01 0.98 1.02 1.07 1.06 1.05
1.38 1.35 1.39 1.37 1.36 1.38 1.45 1.52 1.57 1.56 1.50 1.48 1.43 1.24 1.11 1.03 1.03 0.99 0.95 0.93 0.91 0.89 0.95 1.06 1.12 1.12 1.07 1.03 1.03 0.98 0.95 0.96 0.95 0.94 0.98 1.01 1.03 1.03 0.98 0.97 0.98 0.98 0.97
1.43 1.38 1.28 1.28 1.29 1.34 1.36 1.39 1.41 1.35 1.28 1.26 1.23 1.12 1.05 1.02 1.04 1.02 0.96 0.92 0.87 0.82 0.84 0.91 0.98 1.01 0.97 0.93 0.95 0.98 0.97 0.95 0.97 0.96 0.95 0.96 0.99 0.97 0.94 0.94 0.95 0.98 1.01
1.35 1.33 1.24 1.16 1.12 1.16 1.18 1.21 1.22 1.17 1.13 1.13 1.11 1.04 1.00 1.01 0.95 0.88 0.83 0.78 0.76 0.75 0.75 0.79 0.84 0.85 0.84 0.82 0.85 0.90 0.90 0.86 0.87 0.91 0.94 0.95 0.95 0.89 0.89 0.90 0.89 0.94 0.97
1.23 1.22 1.19 1.09 0.99 0.98 1.04 1.12 1.12 1.08 1.07 1.01 0.93 0.88 0.87 0.89 0.83 0.73 0.69 0.68 0.68 0.66 0.66 0.69 0.67 0.65 0.68 0.71 0.73 0.74 0.73 0.69 0.70 0.75 0.78 0.83 0.87 0.83 0.84 0.85 0.82 0.86 0.97
1.02 1.03 1.04 1.00 0.89 0.84 0.93 1.01 1.00 0.94 0.90 0.85 0.78 0.76 0.74 0.72 0.71 0.69 0.65 0.63 0.62 0.61 0.56 0.56 0.59 0.59 0.59 0.59 0.59 0.59 0.56 0.54 0.53 0.56 0.61 0.67 0.76 0.81 0.82 0.83 0.86 0.93 1.02
0.87 0.87 0.86 0.84 0.78 0.73 0.78 0.88 0.89 0.82 0.79 0.73 0.65 0.63 0.64 0.65 0.66 0.66 0.63 0.58 0.57 0.54 0.50 0.51 0.54 0.54 0.51 0.51 0.49 0.44 0.41 0.39 0.41 0.45 0.47 0.55 0.67 0.76 0.78 0.82 0.83 0.88 0.94